This is the latest recevied weather packets stored in our database for station/object KC5EZZ-2. If no packets are shown the sender has not sent any weather packets the latest 10 day(s).
| Time | Temp. | Humidity | Pressure | Rain* | Wind** | Luminosity | Snow |
|---|---|---|---|---|---|---|---|
| 1777984123 | 20° C | - | - | 0 mm | 3.58 m/s, 210° | - | - |
| 1777983824 | 20° C | - | - | 0 mm | 3.58 m/s, 197° | - | - |
| 1777983524 | 20° C | - | - | 0 mm | 4.92 m/s, 200° | - | - |
| 1777983220 | 20° C | - | - | 0 mm | 4.92 m/s, 208° | - | - |
| 1777982963 | 20° C | - | - | 0 mm | 5.36 m/s, 188° | - | - |
| 1777982920 | 20° C | - | - | 0 mm | 5.36 m/s, 188° | - | - |
| 1777982621 | 19.44° C | - | - | 0 mm | 4.92 m/s, 204° | - | - |
| 1777982318 | 20° C | - | - | 0 mm | 4.92 m/s, 188° | - | - |
| 1777982074 | 20° C | - | - | 0 mm | 5.36 m/s, 183° | - | - |
| 1777982019 | 20° C | - | - | 0 mm | 5.36 m/s, 183° | - | - |
| 1777981719 | 19.44° C | - | - | 0 mm | 4.47 m/s, 224° | - | - |
| 1777981416 | 19.44° C | - | - | 0 mm | 4.47 m/s, 188° | - | - |
| 1777981116 | 19.44° C | - | - | 0 mm | 3.58 m/s, 188° | - | - |
| 1777980817 | 19.44° C | - | - | 0 mm | 4.02 m/s, 201° | - | - |
| 1777980514 | 19.44° C | - | - | 0 mm | 3.58 m/s, 205° | - | - |
| 1777980215 | 19.44° C | - | - | 0 mm | 3.13 m/s, 177° | - | - |
| 1777979915 | 19.44° C | - | - | 0 mm | 3.13 m/s, 233° | - | - |
| 1777979613 | 19.44° C | - | - | 0 mm | 2.68 m/s, 188° | - | - |
| 1777979313 | 20° C | - | - | 0 mm | 2.68 m/s, 245° | - | - |
| 1777979048 | 20° C | - | - | 0 mm | 3.58 m/s, 194° | - | - |
| 1777979013 | 20° C | - | - | 0 mm | 3.58 m/s, 194° | - | - |
| 1777978748 | 20° C | - | - | 0 mm | 2.24 m/s, 205° | - | - |
| 1777978711 | 20° C | - | - | 0 mm | 2.24 m/s, 205° | - | - |
| 1777978411 | 20° C | - | - | 0 mm | 2.68 m/s, 211° | - | - |
| 1777978112 | 20° C | - | - | 0 mm | 2.68 m/s, 162° | - | - |
* Rain latest hour (hover to see other rain measurements)
** Current wind speed in m/s (hover to see current wind gust speed)